nws-alerts: Checking more than four warning/county codes can delay the loading of your pages. You should use a cron job to get the data.
EllijayWeather Station Historical Data
Daily Summary for October 31, 2018 Units:  English    Metric   Both
Daily Weekly Monthly Yearly Custom
  High: Low: Average:
Temperature: 72 °F 46.4 °F 57.8 °F
Dew Point: 61.5 °F 33.4 °F 45.7 °F
Humidity: 76% 53% 64%
Wind Speed: 2.9mph 0mph 0mph
Wind Gust: 7mph - -
Wind- - South
Pressure: 30.24 in 30.06 in -
Precipitation: 0.00 in    
Historical Graphs
 
 
Tabular Data for October 31, 2018
Time Temperature Dew Point Pressure Wind Wind Speed Wind Gust Humidity Rainfall Rate (Hourly) solar
00:02 48 °F 36.9 °F 30.24 in Calm     65% 0 in meteobridge W/m2
00:09 47.8 °F 36.7 °F 30.24 in Calm     65% 0 in meteobridge W/m2
00:14 47.8 °F 36.7 °F 30.24 in Calm     65% 0 in meteobridge W/m2
00:19 47.8 °F 36.3 °F 30.24 in Calm     64% 0 in meteobridge W/m2
00:24 47.8 °F 36.3 °F 30.24 in Calm     64% 0 in meteobridge W/m2
00:29 47.8 °F 36.3 °F 30.24 in Calm     64% 0 in meteobridge W/m2
00:33 47.8 °F 35.8 °F 30.24 in Calm     63% 0 in meteobridge W/m2
00:37 47.8 °F 36.3 °F 30.24 in Calm     64% 0 in meteobridge W/m2
00:43 47.8 °F 36.3 °F 30.24 in Calm     64% 0 in meteobridge W/m2
00:49 47.7 °F 36.1 °F 30.24 in Calm     64% 0 in meteobridge W/m2
00:53 47.7 °F 36.1 °F 30.24 in Calm     64% 0 in meteobridge W/m2
00:59 47.7 °F 36.1 °F 30.24 in Calm     64% 0 in meteobridge W/m2
01:04 47.7 °F 35.6 °F 30.24 in Calm     63% 0 in meteobridge W/m2
01:09 47.7 °F 35.6 °F 30.24 in Calm     63% 0 in meteobridge W/m2
01:13 47.8 °F 35.8 °F 30.24 in Calm     63% 0 in meteobridge W/m2
01:19 47.8 °F 35.8 °F 30.24 in Calm     63% 0 in meteobridge W/m2
01:24 47.7 °F 35.6 °F 30.24 in Calm     63% 0 in meteobridge W/m2
01:29 47.7 °F 35.6 °F 30.24 in Calm     63% 0 in meteobridge W/m2
01:34 47.7 °F 36.1 °F 30.24 in Calm     64% 0 in meteobridge W/m2
01:39 47.5 °F 35.6 °F 30.24 in Calm     63% 0 in meteobridge W/m2
01:44 47.5 °F 36 °F 30.24 in Calm     64% 0 in meteobridge W/m2
01:49 47.3 °F 35.8 °F 30.24 in Calm     64% 0 in meteobridge W/m2
01:54 47.1 °F 35.2 °F 30.24 in Calm     63% 0 in meteobridge W/m2
01:58 47.1 °F 35.2 °F 30.24 in Calm     63% 0 in meteobridge W/m2
02:04 47.1 °F 35.2 °F 30.24 in Calm     63% 0 in meteobridge W/m2
02:09 46.9 °F 35.4 °F 30.24 in Calm     64% 0 in meteobridge W/m2
02:13 46.9 °F 35.4 °F 30.24 in Calm     64% 0 in meteobridge W/m2
02:17 46.9 °F 35.4 °F 30.24 in Calm     64% 0 in meteobridge W/m2
02:24 46.6 °F 35.1 °F 30.24 in Calm     64% 0 in meteobridge W/m2
02:29 46.4 °F 34.9 °F 30.24 in Calm     64% 0 in meteobridge W/m2
02:34 46.4 °F 34.5 °F 30.24 in Calm     63% 0 in meteobridge W/m2
02:39 46.6 °F 34.3 °F 30.24 in Calm     62% 0 in meteobridge W/m2
02:44 46.8 °F 34.5 °F 30.24 in Calm     62% 0 in meteobridge W/m2
02:47 46.8 °F 34.5 °F 30.24 in Calm     62% 0 in meteobridge W/m2
02:54 46.8 °F 34.5 °F 30.24 in Calm     62% 0 in meteobridge W/m2
02:59 46.9 °F 34.5 °F 30.24 in Calm     62% 0 in meteobridge W/m2
03:03 46.9 °F 34.5 °F 30.24 in Calm     62% 0 in meteobridge W/m2
03:07 46.9 °F 34.5 °F 30.24 in Calm     62% 0 in meteobridge W/m2
03:14 46.9 °F 34.2 °F 30.24 in Calm     61% 0 in meteobridge W/m2
03:19 47.1 °F 34.3 °F 30.24 in Calm     61% 0 in meteobridge W/m2
03:24 47.1 °F 34.3 °F 30.24 in Calm     61% 0 in meteobridge W/m2
03:27 47.1 °F 34.3 °F 30.24 in Calm     61% 0 in meteobridge W/m2
03:32 47.3 °F 34.5 °F 30.24 in Calm     61% 0 in meteobridge W/m2
03:39 47.5 °F 34.7 °F 30.24 in Calm     61% 0 in meteobridge W/m2
03:44 47.5 °F 34.7 °F 30.24 in Calm     61% 0 in meteobridge W/m2
03:49 47.7 °F 34.9 °F 30.24 in Calm     61% 0 in meteobridge W/m2
03:53 47.7 °F 34.9 °F 30.24 in Calm     61% 0 in meteobridge W/m2
03:59 47.8 °F 35.1 °F 30.24 in Calm     61% 0 in meteobridge W/m2
04:03 47.8 °F 35.1 °F 30.24 in Calm     61% 0 in meteobridge W/m2
04:09 47.8 °F 35.1 °F 30.24 in Calm     61% 0 in meteobridge W/m2
04:13 47.8 °F 35.1 °F 30.24 in Calm     61% 0 in meteobridge W/m2
04:19 47.8 °F 35.1 °F 30.23 in Calm     61% 0 in meteobridge W/m2
04:24 47.8 °F 35.1 °F 30.23 in Calm     61% 0 in meteobridge W/m2
04:29 47.7 °F 34.9 °F 30.23 in Calm     61% 0 in meteobridge W/m2
04:34 47.7 °F 34.9 °F 30.23 in Calm     61% 0 in meteobridge W/m2
04:38 47.7 °F 34.9 °F 30.23 in Calm     61% 0 in meteobridge W/m2
04:44 47.5 °F 34.7 °F 30.22 in Calm     61% 0 in meteobridge W/m2
04:49 47.5 °F 34.7 °F 30.22 in Calm     61% 0 in meteobridge W/m2
04:54 47.5 °F 34.7 °F 30.22 in Calm     61% 0 in meteobridge W/m2
04:59 47.3 °F 34.5 °F 30.22 in Calm     61% 0 in meteobridge W/m2
05:04 47.3 °F 34.5 °F 30.22 in Calm     61% 0 in meteobridge W/m2
05:09 47.3 °F 34.5 °F 30.22 in Calm     61% 0 in meteobridge W/m2
05:14 47.3 °F 34.5 °F 30.23 in Calm     61% 0 in meteobridge W/m2
05:19 47.3 °F 34.2 °F 30.22 in Calm     60% 0 in meteobridge W/m2
05:22 47.3 °F 34.2 °F 30.22 in Calm     60% 0 in meteobridge W/m2
05:28 47.5 °F 34.3 °F 30.22 in Calm     60% 0 in meteobridge W/m2
05:34 47.5 °F 34.3 °F 30.22 in Calm     60% 0 in meteobridge W/m2
05:39 47.5 °F 33.8 °F 30.22 in Calm     59% 0 in meteobridge W/m2
05:44 47.7 °F 34 °F 30.22 in Calm     59% 0 in meteobridge W/m2
05:48 47.7 °F 34 °F 30.22 in Calm     59% 0 in meteobridge W/m2
05:54 47.7 °F 34 °F 30.22 in Calm     59% 0 in meteobridge W/m2
05:59 47.7 °F 34 °F 30.22 in Calm     59% 0 in meteobridge W/m2
06:04 47.7 °F 34 °F 30.22 in Calm     59% 0 in meteobridge W/m2
06:09 47.8 °F 34.2 °F 30.22 in Calm     59% 0 in meteobridge W/m2
06:14 47.8 °F 34.2 °F 30.22 in Calm     59% 0 in meteobridge W/m2
06:19 47.8 °F 34.2 °F 30.22 in Calm     59% 0 in meteobridge W/m2
06:24 47.8 °F 34.2 °F 30.22 in Calm     59% 0 in meteobridge W/m2
06:29 47.8 °F 34.2 °F 30.22 in Calm     59% 0 in meteobridge W/m2
06:34 47.8 °F 34.2 °F 30.22 in Calm     59% 0 in meteobridge W/m2
06:38 47.8 °F 34.2 °F 30.22 in Calm     59% 0 in meteobridge W/m2
06:44 47.8 °F 34.2 °F 30.22 in Calm     59% 0 in meteobridge W/m2
06:48 47.8 °F 34.2 °F 30.22 in Calm     59% 0 in meteobridge W/m2
06:54 47.8 °F 34.2 °F 30.22 in Calm     59% 0 in meteobridge W/m2
06:57 47.8 °F 34.2 °F 30.22 in Calm     59% 0 in meteobridge W/m2
07:02 47.8 °F 34.2 °F 30.22 in Calm     59% 0 in meteobridge W/m2
07:09 47.8 °F 34.2 °F 30.23 in Calm     59% 0 in meteobridge W/m2
07:14 47.8 °F 34.2 °F 30.22 in Calm     59% 0 in meteobridge W/m2
07:19 47.8 °F 34.2 °F 30.22 in Calm     59% 0 in meteobridge W/m2
07:24 47.8 °F 34.2 °F 30.22 in Calm     59% 0 in meteobridge W/m2
07:28 47.7 °F 34 °F 30.22 in Calm     59% 0 in meteobridge W/m2
07:34 47.7 °F 34 °F 30.23 in Calm     59% 0 in meteobridge W/m2
07:38 47.7 °F 34 °F 30.23 in Calm     59% 0 in meteobridge W/m2
07:43 47.7 °F 34 °F 30.23 in Calm     59% 0 in meteobridge W/m2
07:49 47.7 °F 34 °F 30.23 in Calm     59% 0 in meteobridge W/m2
07:52 47.7 °F 34 °F 30.23 in Calm     59% 0 in meteobridge W/m2
07:59 47.3 °F 33.6 °F 30.23 in Calm     59% 0 in meteobridge W/m2
08:04 47.1 °F 34 °F 30.23 in Calm     60% 0 in meteobridge W/m2
08:09 47.1 °F 34 °F 30.23 in Calm     60% 0 in meteobridge W/m2
08:14 46.9 °F 33.8 °F 30.23 in Calm     60% 0 in meteobridge W/m2
08:19 46.9 °F 33.4 °F 30.23 in Calm     59% 0 in meteobridge W/m2
08:24 47.1 °F 33.4 °F 30.23 in Calm     59% 0 in meteobridge W/m2
08:27 47.1 °F 33.4 °F 30.23 in Calm     59% 0 in meteobridge W/m2
08:33 47.1 °F 33.4 °F 30.23 in Calm     59% 0 in meteobridge W/m2
08:39 47.3 °F 33.6 °F 30.23 in Calm     59% 0 in meteobridge W/m2
08:42 47.3 °F 33.6 °F 30.24 in Calm     59% 0 in meteobridge W/m2
08:47 47.5 °F 33.4 °F 30.24 in Calm     58% 0 in meteobridge W/m2
08:53 47.7 °F 33.6 °F 30.24 in Calm     58% 0 in meteobridge W/m2
08:58 48 °F 34 °F 30.24 in Calm     58% 0 in meteobridge W/m2
09:04 48.4 °F 33.8 °F 30.24 in Calm     57% 0 in meteobridge W/m2
09:09 48.6 °F 34 °F 30.24 in Calm     57% 0 in meteobridge W/m2
09:13 48.7 °F 34.2 °F 30.24 in Calm     57% 0 in meteobridge W/m2
09:19 48.9 °F 34.3 °F 30.24 in Calm     57% 0 in meteobridge W/m2
09:24 49.3 °F 34.7 °F 30.24 in Calm     57% 0 in meteobridge W/m2
09:29 49.5 °F 34.3 °F 30.24 in Calm     56% 0 in meteobridge W/m2
09:34 49.8 °F 34.7 °F 30.24 in Calm     56% 0 in meteobridge W/m2
09:39 50 °F 34.9 °F 30.24 in Calm     56% 0 in meteobridge W/m2
09:44 50.5 °F 35.1 °F 30.24 in Calm     55% 0 in meteobridge W/m2
09:49 51.1 °F 35.4 °F 30.24 in Calm     55% 0 in meteobridge W/m2
09:54 51.4 °F 35.8 °F 30.24 in Calm     55% 0 in meteobridge W/m2
09:58 51.8 °F 35.6 °F 30.24 in Calm     54% 0 in meteobridge W/m2
10:03 52.3 °F 36.1 °F 30.24 in Calm     54% 0 in meteobridge W/m2
10:09 53.1 °F 36.9 °F 30.24 in Calm     54% 0 in meteobridge W/m2
10:14 53.4 °F 37.2 °F 30.23 in Calm     54% 0 in meteobridge W/m2
10:16 53.4 °F 37.2 °F 30.24 in Calm     54% 0 in meteobridge W/m2
10:24 54.3 °F 37.6 °F 30.24 in Calm     53% 0 in meteobridge W/m2
10:29 54.9 °F 38.1 °F 30.23 in Calm     53% 0 in meteobridge W/m2
10:34 55.6 °F 38.7 °F 30.23 in Calm     53% 0 in meteobridge W/m2
10:39 56.3 °F 40.3 °F 30.23 in Calm     55% 0 in meteobridge W/m2
10:44 56.8 °F 42.6 °F 30.23 in Calm     59% 0 in meteobridge W/m2
10:48 57.7 °F 46.4 °F 30.23 in Calm   1 mph 66% 0 in meteobridge W/m2
10:54 58.6 °F 50 °F 30.23 in Calm   1 mph 73% 0 in meteobridge W/m2
10:56 59.2 °F 49.5 °F 30.23 in Calm   1 mph 70% 0 in meteobridge W/m2
11:04 60.1 °F 52.5 °F 30.23 in ENE 2.9 mph 3 mph 76% 0 in meteobridge W/m2
11:09 61 °F 53.4 °F 30.23 in Calm     76% 0 in meteobridge W/m2
11:13 61.5 °F 54 °F 30.23 in Calm     76% 0 in meteobridge W/m2
11:19 62.1 °F 53.6 °F 30.23 in Calm     74% 0 in meteobridge W/m2
11:23 62.4 °F 54 °F 30.23 in Calm     74% 0 in meteobridge W/m2
11:29 62.8 °F 54.7 °F 30.23 in Calm     75% 0 in meteobridge W/m2
11:34 63.1 °F 55 °F 30.23 in Calm     75% 0 in meteobridge W/m2
11:39 63.7 °F 55.6 °F 30.22 in NW 2 mph 2 mph 75% 0 in meteobridge W/m2
11:44 63.9 °F 55 °F 30.22 in Calm     73% 0 in meteobridge W/m2
11:49 64.4 °F 55.6 °F 30.22 in NW 2 mph 5 mph 73% 0 in meteobridge W/m2
11:54 64.8 °F 56.3 °F 30.22 in Calm     74% 0 in meteobridge W/m2
11:59 64.9 °F 56.5 °F 30.22 in Calm   1 mph 74% 0 in meteobridge W/m2
12:03 65.3 °F 56.8 °F 30.22 in Calm   1 mph 74% 0 in meteobridge W/m2
12:09 65.7 °F 56.8 °F 30.21 in Calm   4 mph 73% 0 in meteobridge W/m2
12:14 66.2 °F 57.2 °F 30.21 in Calm     73% 0 in meteobridge W/m2
12:19 66.7 °F 58.1 °F 30.21 in Calm   4 mph 74% 0 in meteobridge W/m2
12:24 66.9 °F 58.3 °F 30.21 in Calm     74% 0 in meteobridge W/m2
12:29 67.1 °F 58.5 °F 30.21 in Calm     74% 0 in meteobridge W/m2
12:34 67.1 °F 58.5 °F 30.20 in Calm     74% 0 in meteobridge W/m2
12:38 66.9 °F 58.8 °F 30.20 in Calm     75% 0 in meteobridge W/m2
12:44 66.9 °F 58.8 °F 30.20 in Calm     75% 0 in meteobridge W/m2
12:49 67.1 °F 58.8 °F 30.19 in Calm   1 mph 75% 0 in meteobridge W/m2
12:54 67.5 °F 59.2 °F 30.19 in Calm     75% 0 in meteobridge W/m2
12:59 67.6 °F 59.4 °F 30.19 in Calm   1 mph 75% 0 in meteobridge W/m2
13:04 68.2 °F 59.9 °F 30.18 in Calm   3 mph 75% 0 in meteobridge W/m2
13:09 68.4 °F 60.1 °F 30.18 in Calm   1 mph 75% 0 in meteobridge W/m2
13:14 68.5 °F 59.9 °F 30.18 in Calm     74% 0 in meteobridge W/m2
13:19 68.5 °F 59.9 °F 30.17 in Calm   1 mph 74% 0 in meteobridge W/m2
13:24 68.5 °F 59.9 °F 30.17 in Calm   3 mph 74% 0 in meteobridge W/m2
13:28 68.5 °F 60.3 °F 30.17 in Calm   1 mph 75% 0 in meteobridge W/m2
13:34 69.1 °F 60.4 °F 30.16 in Calm   4 mph 74% 0 in meteobridge W/m2
13:38 69.4 °F 60.8 °F 30.16 in Calm   2 mph 74% 0 in meteobridge W/m2
13:42 69.8 °F 61.2 °F 30.16 in Calm   1 mph 74% 0 in meteobridge W/m2
13:48 70.3 °F 61.3 °F 30.16 in Calm   1 mph 73% 0 in meteobridge W/m2
13:54 70.3 °F 61.3 °F 30.15 in Calm   1 mph 73% 0 in meteobridge W/m2
13:59 70.5 °F 61 °F 30.15 in East 0.9 mph 1 mph 72% 0 in meteobridge W/m2
14:03 70.9 °F 61 °F 30.14 in Calm   2 mph 71% 0 in meteobridge W/m2
14:09 70.9 °F 60.6 °F 30.14 in Calm     70% 0 in meteobridge W/m2
14:14 70.9 °F 61 °F 30.14 in Calm   1 mph 71% 0 in meteobridge W/m2
14:19 71.1 °F 61.2 °F 30.13 in ESE 0.9 mph 4 mph 71% 0 in meteobridge W/m2
14:24 71.2 °F 61.3 °F 30.13 in Calm   1 mph 71% 0 in meteobridge W/m2
14:29 71.4 °F 61.5 °F 30.13 in Calm   2 mph 71% 0 in meteobridge W/m2
14:34 71.4 °F 61.5 °F 30.13 in Calm   1 mph 71% 0 in meteobridge W/m2
14:39 71.6 °F 61.3 °F 30.13 in Calm   1 mph 70% 0 in meteobridge W/m2
14:44 71.4 °F 60.8 °F 30.12 in Calm   7 mph 69% 0 in meteobridge W/m2
14:49 71.4 °F 61.2 °F 30.12 in Calm   2 mph 70% 0 in meteobridge W/m2
14:54 71.4 °F 60.8 °F 30.12 in Calm   3 mph 69% 0 in meteobridge W/m2
14:59 71.4 °F 60.3 °F 30.12 in WNW 0.9 mph 4 mph 68% 0 in meteobridge W/m2
15:04 71.4 °F 60.3 °F 30.12 in Calm   2 mph 68% 0 in meteobridge W/m2
15:09 71.8 °F 61 °F 30.11 in Calm   4 mph 69% 0 in meteobridge W/m2
15:14 71.8 °F 61 °F 30.11 in NW 2 mph 5 mph 69% 0 in meteobridge W/m2
15:19 71.8 °F 60.6 °F 30.11 in Calm   4 mph 68% 0 in meteobridge W/m2
15:22 72 °F 61.2 °F 30.11 in Calm   5 mph 69% 0 in meteobridge W/m2
15:27 72 °F 60.8 °F 30.11 in Calm     68% 0 in meteobridge W/m2
15:33 72 °F 61.2 °F 30.11 in Calm     69% 0 in meteobridge W/m2
15:39 71.8 °F 60.6 °F 30.10 in Calm   3 mph 68% 0 in meteobridge W/m2
15:43 71.8 °F 61 °F 30.10 in NE 0.9 mph 2 mph 69% 0 in meteobridge W/m2
15:49 71.6 °F 60.8 °F 30.10 in Calm     69% 0 in meteobridge W/m2
15:54 71.6 °F 60.8 °F 30.10 in Calm     69% 0 in meteobridge W/m2
15:59 71.8 °F 61 °F 30.10 in Calm   1 mph 69% 0 in meteobridge W/m2
16:04 71.8 °F 61.5 °F 30.09 in Calm     70% 0 in meteobridge W/m2
16:09 71.8 °F 61 °F 30.09 in Calm   1 mph 69% 0 in meteobridge W/m2
16:13 71.8 °F 61 °F 30.09 in Calm   1 mph 69% 0 in meteobridge W/m2
16:19 71.8 °F 61 °F 30.09 in Calm     69% 0 in meteobridge W/m2
16:24 71.8 °F 61 °F 30.09 in Calm     69% 0 in meteobridge W/m2
16:29 71.8 °F 61 °F 30.09 in Calm     69% 0 in meteobridge W/m2
16:34 71.8 °F 61.5 °F 30.09 in Calm     70% 0 in meteobridge W/m2
16:39 71.6 °F 60.8 °F 30.08 in Calm     69% 0 in meteobridge W/m2
16:44 71.4 °F 61.2 °F 30.09 in Calm   1 mph 70% 0 in meteobridge W/m2
16:49 71.2 °F 61 °F 30.08 in Calm     70% 0 in meteobridge W/m2
16:53 71.2 °F 61.3 °F 30.08 in Calm     71% 0 in meteobridge W/m2
16:57 71.1 °F 61.2 °F 30.08 in Calm     71% 0 in meteobridge W/m2
17:02 70.9 °F 61.3 °F 30.08 in Calm     72% 0 in meteobridge W/m2
17:08 70.9 °F 61 °F 30.08 in Calm   1 mph 71% 0 in meteobridge W/m2
17:14 71.1 °F 61.2 °F 30.08 in Calm     71% 0 in meteobridge W/m2
17:19 71.1 °F 61.2 °F 30.08 in Calm     71% 0 in meteobridge W/m2
17:22 71.1 °F 61.2 °F 30.08 in Calm     71% 0 in meteobridge W/m2
17:29 70.9 °F 61.3 °F 30.08 in Calm     72% 0 in meteobridge W/m2
17:32 70.9 °F 61 °F 30.08 in Calm     71% 0 in meteobridge W/m2
17:38 70.5 °F 60.6 °F 30.08 in Calm     71% 0 in meteobridge W/m2
17:44 70.5 °F 61 °F 30.08 in Calm     72% 0 in meteobridge W/m2
17:49 70.5 °F 61 °F 30.08 in Calm     72% 0 in meteobridge W/m2
17:53 70.3 °F 60.8 °F 30.08 in Calm   1 mph 72% 0 in meteobridge W/m2
17:58 70.2 °F 60.6 °F 30.08 in Calm     72% 0 in meteobridge W/m2
18:03 70.2 °F 60.6 °F 30.08 in Calm     72% 0 in meteobridge W/m2
18:09 69.6 °F 60.6 °F 30.08 in Calm     73% 0 in meteobridge W/m2
18:14 69.3 °F 60.3 °F 30.07 in Calm     73% 0 in meteobridge W/m2
18:19 68.9 °F 60.3 °F 30.07 in Calm     74% 0 in meteobridge W/m2
18:22 68.7 °F 60.1 °F 30.07 in Calm     74% 0 in meteobridge W/m2
18:29 68.2 °F 59.9 °F 30.07 in Calm     75% 0 in meteobridge W/m2
18:34 67.8 °F 59.5 °F 30.07 in Calm     75% 0 in meteobridge W/m2
18:39 67.5 °F 59.2 °F 30.07 in Calm     75% 0 in meteobridge W/m2
18:43 67.1 °F 58.8 °F 30.07 in Calm     75% 0 in meteobridge W/m2
18:49 66.6 °F 58.5 °F 30.08 in Calm     75% 0 in meteobridge W/m2
18:54 66.2 °F 58.1 °F 30.08 in Calm     75% 0 in meteobridge W/m2
18:59 65.8 °F 57.4 °F 30.08 in Calm     74% 0 in meteobridge W/m2
19:04 65.3 °F 56.8 °F 30.08 in Calm     74% 0 in meteobridge W/m2
19:09 64.8 °F 55.9 °F 30.08 in Calm     73% 0 in meteobridge W/m2
19:13 64.2 °F 55 °F 30.08 in Calm     72% 0 in meteobridge W/m2
19:18 64 °F 54.9 °F 30.08 in Calm     72% 0 in meteobridge W/m2
19:24 63.7 °F 54.1 °F 30.08 in Calm     71% 0 in meteobridge W/m2
19:29 63.3 °F 53.4 °F 30.08 in Calm     70% 0 in meteobridge W/m2
19:33 63.1 °F 53.2 °F 30.08 in Calm     70% 0 in meteobridge W/m2
19:38 62.4 °F 51.8 °F 30.08 in Calm     68% 0 in meteobridge W/m2
19:42 62.2 °F 51.1 °F 30.08 in Calm     67% 0 in meteobridge W/m2
19:49 61.9 °F 50 °F 30.08 in Calm     65% 0 in meteobridge W/m2
19:53 61.7 °F 49.8 °F 30.08 in Calm     65% 0 in meteobridge W/m2
19:59 61.3 °F 49.5 °F 30.09 in Calm     65% 0 in meteobridge W/m2
20:04 61.2 °F 48.9 °F 30.09 in Calm     64% 0.00 in meteobridge W/m2
20:09 61.0 °F 48.7 °F 30.09 in Calm     64% 0.00 in meteobridge W/m2
20:14 60.8 °F 48.2 °F 30.09 in Calm     63% 0.00 in meteobridge W/m2
20:19 60.6 °F 47.5 °F 30.09 in Calm     62% 0.00 in meteobridge W/m2
20:24 60.4 °F 46.9 °F 30.09 in Calm     61% 0.00 in meteobridge W/m2
20:29 60.3 °F 46.8 °F 30.09 in Calm     61% 0.00 in meteobridge W/m2
20:34 60.1 °F 46.2 °F 30.09 in Calm     60% 0.00 in meteobridge W/m2
20:37 60.1 °F 46.2 °F 30.09 in Calm     60% 0.00 in meteobridge W/m2
20:44 59.9 °F 45.5 °F 30.09 in Calm     59% 0.00 in meteobridge W/m2
20:49 59.7 °F 45.3 °F 30.09 in Calm     59% 0.00 in meteobridge W/m2
20:54 59.5 °F 45.1 °F 30.09 in Calm     59% 0.00 in meteobridge W/m2
20:59 59.5 °F 44.8 °F 30.09 in Calm     58% 0.00 in meteobridge W/m2
21:04 59.4 °F 45.0 °F 30.09 in Calm     59% 0.00 in meteobridge W/m2
21:09 59.4 °F 44.6 °F 30.09 in Calm     58% 0.00 in meteobridge W/m2
21:13 59.2 °F 44.4 °F 30.09 in Calm     58% 0.00 in meteobridge W/m2
21:19 59.2 °F 44.4 °F 30.09 in Calm     58% 0.00 in meteobridge W/m2
21:24 59.0 °F 44.2 °F 30.09 in Calm     58% 0.00 in meteobridge W/m2
21:28 58.8 °F 43.7 °F 30.08 in Calm     57% 0.00 in meteobridge W/m2
21:34 58.8 °F 43.7 °F 30.08 in Calm     57% 0.00 in meteobridge W/m2
21:39 58.8 °F 43.7 °F 30.08 in Calm     57% 0.00 in meteobridge W/m2
21:44 58.6 °F 43.5 °F 30.08 in Calm     57% 0.00 in meteobridge W/m2
21:49 58.6 °F 43.5 °F 30.08 in Calm     57% 0.00 in meteobridge W/m2
21:54 58.6 °F 43.0 °F 30.08 in Calm     56% 0.00 in meteobridge W/m2
21:58 58.6 °F 43.0 °F 30.08 in Calm     56% 0.00 in meteobridge W/m2
22:04 58.6 °F 43.0 °F 30.08 in Calm     56% 0.00 in meteobridge W/m2
22:09 58.6 °F 43.0 °F 30.08 in Calm     56% 0.00 in meteobridge W/m2
22:13 58.6 °F 43.0 °F 30.08 in Calm     56% 0.00 in meteobridge W/m2
22:18 58.6 °F 43.0 °F 30.08 in Calm     56% 0.00 in meteobridge W/m2
22:22 58.6 °F 43.0 °F 30.08 in Calm     56% 0.00 in meteobridge W/m2
22:29 58.8 °F 43.2 °F 30.08 in Calm     56% 0.00 in meteobridge W/m2
22:34 58.8 °F 42.6 °F 30.08 in Calm     55% 0.00 in meteobridge W/m2
22:39 59.0 °F 42.8 °F 30.08 in Calm     55% 0.00 in meteobridge W/m2
22:44 59.2 °F 43.0 °F 30.09 in Calm   1.0 mph 55% 0.00 in meteobridge W/m2
22:48 59.4 °F 43.2 °F 30.08 in Calm     55% 0.00 in meteobridge W/m2
22:52 59.4 °F 43.7 °F 30.08 in Calm     56% 0.00 in meteobridge W/m2
22:59 59.4 °F 43.7 °F 30.09 in Calm     56% 0.00 in meteobridge W/m2
23:04 59.5 °F 43.9 °F 30.08 in Calm     56% 0.00 in meteobridge W/m2
23:09 59.5 °F 44.2 °F 30.08 in Calm     57% 0.00 in meteobridge W/m2
23:13 59.5 °F 44.2 °F 30.08 in Calm     57% 0.00 in meteobridge W/m2
23:19 59.5 °F 44.2 °F 30.08 in Calm     57% 0.00 in meteobridge W/m2
23:24 59.5 °F 44.8 °F 30.08 in Calm     58% 0.00 in meteobridge W/m2
23:29 59.5 °F 44.8 °F 30.08 in Calm     58% 0.00 in meteobridge W/m2
23:34 59.7 °F 45.0 °F 30.08 in Calm     58% 0.00 in meteobridge W/m2
23:39 59.7 °F 45.0 °F 30.08 in Calm   1.0 mph 58% 0.00 in meteobridge W/m2
23:44 60.1 °F 46.2 °F 30.08 in Calm     60% 0.00 in meteobridge W/m2
23:49 61.0 °F 48.4 °F 30.07 in Calm   2.0 mph 63% 0.00 in meteobridge W/m2
23:54 62.1 °F 51.4 °F 30.06 in SE 0.9 mph 1.0 mph 68% 0.00 in meteobridge W/m2
23:59 63.0 °F 53.8 °F 30.06 in Calm   1.0 mph 72% 0.00 in meteobridge W/m2
EllijayWeather
Compliments of Weather Underground - 2.5 mb